PRIVATE WETTERSTATION BILLIGHEIM-ALLFELD                       ZURCK
Wetterdaten: Mittwoch, 25.01.2017
Datum Zeit Temp. A. Temp. A. min Temp. A. max Feuchte A. Luftdruck Regen Wind Richtung Richtung Sonnenschein ET Solar Taupunkt Windchill Windben Empfang
25.01.2017 00:00 -8,6 C -8,7 C -8,6 C 90 % 1031,6 hPa 0,0 l/m 0,0 km/h (0 Bft) O 90 0 min 0,000 mm 0 W/m -9,9 C -8,6 C 8,0 km/h (2 Bft) 97 %
25.01.2017 00:10 -8,7 C -8,7 C -8,6 C 90 % 1031,5 hPa 0,0 l/m 1,6 km/h (1 Bft) N-NO 22 0 min 0,000 mm 0 W/m -10,0 C -8,7 C 8,0 km/h (2 Bft) 97 %
25.01.2017 00:20 -8,7 C -8,7 C -8,7 C 90 % 1031,5 hPa 0,0 l/m 0,0 km/h (0 Bft) O 90 0 min 0,000 mm 0 W/m -10,0 C -8,7 C 8,0 km/h (2 Bft) 98 %
25.01.2017 00:30 -8,7 C -8,7 C -8,7 C 90 % 1031,4 hPa 0,0 l/m 0,0 km/h (0 Bft) SO 135 0 min 0,000 mm 0 W/m -10,0 C -8,7 C 4,8 km/h (1 Bft) 97 %
25.01.2017 00:40 -8,7 C -8,7 C -8,7 C 90 % 1031,4 hPa 0,0 l/m 0,0 km/h (0 Bft) SO 135 0 min 0,000 mm 0 W/m -10,0 C -8,7 C 6,4 km/h (2 Bft) 98 %
25.01.2017 00:50 -8,7 C -8,8 C -8,7 C 90 % 1031,4 hPa 0,0 l/m 1,6 km/h (1 Bft) SO 135 0 min 0,000 mm 0 W/m -10,0 C -8,7 C 8,0 km/h (2 Bft) 98 %
25.01.2017 01:00 -8,8 C -8,8 C -8,7 C 90 % 1031,4 hPa 0,0 l/m 0,0 km/h (0 Bft) O-NO 67 0 min 0,000 mm 0 W/m -10,1 C -8,8 C 4,8 km/h (1 Bft) 98 %
25.01.2017 01:10 -8,7 C -8,8 C -8,7 C 90 % 1031,4 hPa 0,0 l/m 0,0 km/h (0 Bft) O-SO 112 0 min 0,000 mm 0 W/m -10,0 C -8,7 C 6,4 km/h (2 Bft) 98 %
25.01.2017 01:20 -8,6 C -8,7 C -8,6 C 90 % 1031,3 hPa 0,0 l/m 0,0 km/h (0 Bft) N 0 0 min 0,000 mm 0 W/m -9,9 C -8,6 C 0,0 km/h (0 Bft) 98 %
25.01.2017 01:30 -8,6 C -8,6 C -8,6 C 90 % 1031,2 hPa 0,0 l/m 0,0 km/h (0 Bft) N 0 0 min 0,000 mm 0 W/m -9,9 C -8,6 C 0,0 km/h (0 Bft) 98 %
25.01.2017 01:40 -8,5 C -8,6 C -8,5 C 90 % 1031,1 hPa 0,0 l/m 0,0 km/h (0 Bft) O-SO 112 0 min 0,000 mm 0 W/m -9,8 C -8,5 C 1,6 km/h (1 Bft) 97 %
25.01.2017 01:50 -8,4 C -8,5 C -8,4 C 90 % 1031,1 hPa 0,0 l/m 0,0 km/h (0 Bft) N 0 0 min 0,000 mm 0 W/m -9,7 C -8,4 C 0,0 km/h (0 Bft) 98 %
25.01.2017 02:00 -8,4 C -8,4 C -8,4 C 90 % 1031,0 hPa 0,0 l/m 0,0 km/h (0 Bft) N 0 0 min 0,000 mm 0 W/m -9,7 C -8,4 C 0,0 km/h (0 Bft) 98 %
25.01.2017 02:10 -8,4 C -8,4 C -8,4 C 90 % 1031,0 hPa 0,0 l/m 0,0 km/h (0 Bft) N 0 0 min 0,000 mm 0 W/m -9,7 C -8,4 C 0,0 km/h (0 Bft) 98 %
25.01.2017 02:20 -8,3 C -8,4 C -8,3 C 90 % 1031,0 hPa 0,0 l/m 0,0 km/h (0 Bft) N 0 0 min 0,000 mm 0 W/m -9,6 C -8,3 C 0,0 km/h (0 Bft) 91 %
25.01.2017 02:30 -8,2 C -8,3 C -8,2 C 90 % 1030,9 hPa 0,0 l/m 0,0 km/h (0 Bft) O 90 0 min 0,000 mm 0 W/m -9,5 C -8,2 C 1,6 km/h (1 Bft) 96 %
25.01.2017 02:40 -8,1 C -8,2 C -8,1 C 91 % 1030,8 hPa 0,0 l/m 0,0 km/h (0 Bft) O 90 0 min 0,000 mm 0 W/m -9,3 C -8,1 C 3,2 km/h (1 Bft) 98 %
25.01.2017 02:50 -8,0 C -8,1 C -7,9 C 90 % 1030,8 hPa 0,0 l/m 0,0 km/h (0 Bft) O 90 0 min 0,000 mm 0 W/m -9,3 C -8,0 C 4,8 km/h (1 Bft) 97 %
25.01.2017 03:00 -7,9 C -8,0 C -7,9 C 90 % 1030,8 hPa 0,0 l/m 0,0 km/h (0 Bft) SO 135 0 min 0,000 mm 0 W/m -9,2 C -7,9 C 8,0 km/h (2 Bft) 98 %
25.01.2017 03:10 -7,8 C -7,9 C -7,8 C 90 % 1030,7 hPa 0,0 l/m 0,0 km/h (0 Bft) N 0 0 min 0,000 mm 0 W/m -9,1 C -7,8 C 0,0 km/h (0 Bft) 97 %
25.01.2017 03:20 -7,8 C -7,8 C -7,8 C 90 % 1030,7 hPa 0,0 l/m 0,0 km/h (0 Bft) N 0 0 min 0,000 mm 0 W/m -9,1 C -7,8 C 0,0 km/h (0 Bft) 98 %
25.01.2017 03:30 -7,7 C -7,8 C -7,7 C 90 % 1030,6 hPa 0,0 l/m 0,0 km/h (0 Bft) SO 135 0 min 0,000 mm 0 W/m -9,0 C -7,7 C 4,8 km/h (1 Bft) 98 %
25.01.2017 03:40 -7,6 C -7,7 C -7,6 C 90 % 1030,7 hPa 0,0 l/m 1,6 km/h (1 Bft) N-NO 22 0 min 0,000 mm 0 W/m -8,9 C -7,6 C 6,4 km/h (2 Bft) 97 %
25.01.2017 03:50 -7,6 C -7,6 C -7,6 C 90 % 1030,7 hPa 0,0 l/m 0,0 km/h (0 Bft) O-SO 112 0 min 0,000 mm 0 W/m -8,9 C -7,6 C 4,8 km/h (1 Bft) 99 %
25.01.2017 04:00 -7,4 C -7,6 C -7,4 C 90 % 1030,7 hPa 0,0 l/m 0,0 km/h (0 Bft) O-SO 112 0 min 0,000 mm 0 W/m -8,8 C -7,4 C 6,4 km/h (2 Bft) 100 %
25.01.2017 04:10 -7,4 C -7,4 C -7,4 C 90 % 1030,7 hPa 0,0 l/m 0,0 km/h (0 Bft) O-SO 112 0 min 0,000 mm 0 W/m -8,8 C -7,4 C 11,3 km/h (2 Bft) 100 %
25.01.2017 04:20 -7,3 C -7,4 C -7,3 C 90 % 1030,7 hPa 0,0 l/m 1,6 km/h (1 Bft) SO 135 0 min 0,000 mm 0 W/m -8,7 C -7,3 C 11,3 km/h (2 Bft) 100 %
25.01.2017 04:30 -7,2 C -7,3 C -7,2 C 90 % 1030,6 hPa 0,0 l/m 1,6 km/h (1 Bft) O-SO 112 0 min 0,000 mm 0 W/m -8,6 C -7,2 C 8,0 km/h (2 Bft) 100 %
25.01.2017 04:40 -7,1 C -7,2 C -7,1 C 89 % 1030,5 hPa 0,0 l/m 3,2 km/h (1 Bft) O-SO 112 0 min 0,000 mm 0 W/m -8,6 C -7,1 C 11,3 km/h (2 Bft) 100 %
25.01.2017 04:50 -6,9 C -7,1 C -6,9 C 89 % 1030,5 hPa 0,0 l/m 1,6 km/h (1 Bft) O-SO 112 0 min 0,000 mm 0 W/m -8,4 C -6,9 C 17,7 km/h (3 Bft) 100 %
25.01.2017 05:00 -6,9 C -7,0 C -6,9 C 89 % 1030,5 hPa 0,0 l/m 1,6 km/h (1 Bft) O-NO 67 0 min 0,000 mm 0 W/m -8,4 C -6,9 C 8,0 km/h (2 Bft) 100 %
25.01.2017 05:10 -6,9 C -6,9 C -6,9 C 88 % 1030,7 hPa 0,0 l/m 0,0 km/h (0 Bft) O 90 0 min 0,000 mm 0 W/m -8,5 C -6,9 C 8,0 km/h (2 Bft) 91 %
25.01.2017 05:20 -6,9 C -6,9 C -6,9 C 88 % 1030,6 hPa 0,0 l/m 1,6 km/h (1 Bft) O-SO 112 0 min 0,000 mm 0 W/m -8,5 C -6,9 C 8,0 km/h (2 Bft) 100 %
25.01.2017 05:30 -6,8 C -6,9 C -6,8 C 88 % 1030,5 hPa 0,0 l/m 1,6 km/h (1 Bft) O 90 0 min 0,000 mm 0 W/m -8,4 C -6,8 C 8,0 km/h (2 Bft) 100 %
25.01.2017 05:40 -6,8 C -6,8 C -6,8 C 88 % 1030,5 hPa 0,0 l/m 0,0 km/h (0 Bft) O-SO 112 0 min 0,000 mm 0 W/m -8,4 C -6,8 C 8,0 km/h (2 Bft) 100 %
25.01.2017 05:50 -6,8 C -6,8 C -6,8 C 88 % 1030,5 hPa 0,0 l/m 1,6 km/h (1 Bft) O-SO 112 0 min 0,000 mm 0 W/m -8,4 C -6,8 C 8,0 km/h (2 Bft) 100 %
25.01.2017 06:00 -6,8 C -6,8 C -6,8 C 88 % 1030,4 hPa 0,0 l/m 0,0 km/h (0 Bft) O-SO 112 0 min 0,000 mm 0 W/m -8,4 C -6,8 C 6,4 km/h (2 Bft) 90 %
25.01.2017 06:10 -6,8 C -6,8 C -6,8 C 88 % 1030,4 hPa 0,0 l/m 0,0 km/h (0 Bft) O-SO 112 0 min 0,000 mm 0 W/m -8,4 C -6,8 C 6,4 km/h (2 Bft) 99 %
25.01.2017 06:20 -6,7 C -6,8 C -6,7 C 88 % 1030,4 hPa 0,0 l/m 1,6 km/h (1 Bft) O-SO 112 0 min 0,000 mm 0 W/m -8,3 C -6,7 C 11,3 km/h (2 Bft) 100 %
25.01.2017 06:30 -6,7 C -6,7 C -6,7 C 88 % 1030,5 hPa 0,0 l/m 1,6 km/h (1 Bft) SO 135 0 min 0,000 mm 0 W/m -8,3 C -6,7 C 11,3 km/h (2 Bft) 100 %
25.01.2017 06:40 -6,6 C -6,7 C -6,6 C 88 % 1030,6 hPa 0,0 l/m 1,6 km/h (1 Bft) O-SO 112 0 min 0,000 mm 0 W/m -8,2 C -6,6 C 9,7 km/h (2 Bft) 100 %
25.01.2017 06:50 -6,6 C -6,6 C -6,6 C 88 % 1030,6 hPa 0,0 l/m 3,2 km/h (1 Bft) O 90 0 min 0,000 mm 0 W/m -8,2 C -6,6 C 11,3 km/h (2 Bft) 100 %
25.01.2017 07:00 -6,7 C -6,7 C -6,6 C 88 % 1030,5 hPa 0,0 l/m 0,0 km/h (0 Bft) SO 135 0 min 0,000 mm 0 W/m -8,3 C -6,7 C 8,0 km/h (2 Bft) 100 %
25.01.2017 07:10 -6,7 C -6,7 C -6,7 C 88 % 1030,5 hPa 0,0 l/m 3,2 km/h (1 Bft) O-SO 112 0 min 0,000 mm 0 W/m -8,3 C -6,7 C 11,3 km/h (2 Bft) 100 %
25.01.2017 07:20 -6,8 C -6,8 C -6,7 C 88 % 1030,4 hPa 0,0 l/m 1,6 km/h (1 Bft) SO 135 0 min 0,000 mm 0 W/m -8,4 C -6,8 C 11,3 km/h (2 Bft) 100 %
25.01.2017 07:30 -6,8 C -6,8 C -6,8 C 88 % 1030,5 hPa 0,0 l/m 1,6 km/h (1 Bft) O-SO 112 0 min 0,000 mm 0 W/m -8,4 C -6,8 C 14,5 km/h (3 Bft) 100 %
25.01.2017 07:40 -6,8 C -6,8 C -6,8 C 88 % 1030,6 hPa 0,0 l/m 0,0 km/h (0 Bft) O 90 0 min 0,000 mm 0 W/m -8,4 C -6,8 C 6,4 km/h (2 Bft) 100 %
25.01.2017 07:50 -6,8 C -6,8 C -6,8 C 88 % 1030,6 hPa 0,0 l/m 0,0 km/h (0 Bft) O 90 0 min 0,000 mm 0 W/m -8,4 C -6,8 C 3,2 km/h (1 Bft) 100 %
25.01.2017 08:00 -6,8 C -6,8 C -6,8 C 88 % 1030,7 hPa 0,0 l/m 0,0 km/h (0 Bft) N 0 0 min 0,000 mm 0 W/m -8,4 C -6,8 C 0,0 km/h (0 Bft) 90 %
25.01.2017 08:10 -6,8 C -6,8 C -6,8 C 88 % 1030,8 hPa 0,0 l/m 1,6 km/h (1 Bft) SO 135 0 min 0,000 mm 0 W/m -8,4 C -6,8 C 11,3 km/h (2 Bft) 100 %
25.01.2017 08:20 -6,8 C -6,8 C -6,8 C 88 % 1030,8 hPa 0,0 l/m 0,0 km/h (0 Bft) N 0 0 min 0,000 mm 0 W/m -8,4 C -6,8 C 0,0 km/h (0 Bft) 100 %
25.01.2017 08:30 -6,7 C -6,8 C -6,7 C 88 % 1030,7 hPa 0,0 l/m 1,6 km/h (1 Bft) O-NO 67 0 min 0,000 mm 5 W/m -8,3 C -6,7 C 11,3 km/h (2 Bft) 100 %
25.01.2017 08:40 -6,7 C -6,7 C -6,7 C 88 % 1030,9 hPa 0,0 l/m 0,0 km/h (0 Bft) SO 135 0 min 0,000 mm 11 W/m -8,3 C -6,7 C 9,7 km/h (2 Bft) 100 %
25.01.2017 08:50 -6,6 C -6,7 C -6,6 C 87 % 1030,9 hPa 0,0 l/m 0,0 km/h (0 Bft) O-NO 67 0 min 0,000 mm 14 W/m -8,4 C -6,6 C 6,4 km/h (2 Bft) 100 %
25.01.2017 09:00 -6,6 C -6,6 C -6,6 C 88 % 1031,0 hPa 0,0 l/m 0,0 km/h (0 Bft) N 0 0 min 0,000 mm 16 W/m -8,2 C -6,6 C 0,0 km/h (0 Bft) 90 %
25.01.2017 09:10 -6,5 C -6,6 C -6,5 C 87 % 1030,9 hPa 0,0 l/m 0,0 km/h (0 Bft) N 0 0 min 0,000 mm 19 W/m -8,3 C -6,5 C 0,0 km/h (0 Bft) 100 %
25.01.2017 09:20 -6,4 C -6,5 C -6,4 C 87 % 1031,0 hPa 0,0 l/m 1,6 km/h (1 Bft) SO 135 0 min 0,000 mm 25 W/m -8,2 C -6,4 C 9,7 km/h (2 Bft) 100 %
25.01.2017 09:30 -6,4 C -6,4 C -6,4 C 87 % 1031,1 hPa 0,0 l/m 1,6 km/h (1 Bft) O-SO 112 0 min 0,000 mm 32 W/m -8,2 C -6,4 C 16,1 km/h (3 Bft) 100 %
25.01.2017 09:40 -6,4 C -6,4 C -6,4 C 86 % 1031,2 hPa 0,0 l/m 3,2 km/h (1 Bft) O 90 0 min 0,000 mm 39 W/m -8,3 C -6,4 C 11,3 km/h (2 Bft) 100 %
25.01.2017 09:50 -6,4 C -6,4 C -6,4 C 86 % 1031,2 hPa 0,0 l/m 0,0 km/h (0 Bft) O 90 0 min 0,000 mm 46 W/m -8,3 C -6,4 C 8,0 km/h (2 Bft) 90 %
25.01.2017 10:00 -6,4 C -6,4 C -6,4 C 86 % 1031,3 hPa 0,0 l/m 3,2 km/h (1 Bft) O-SO 112 0 min 0,000 mm 53 W/m -8,3 C -6,4 C 14,5 km/h (3 Bft) 100 %
25.01.2017 10:10 -6,4 C -6,4 C -6,4 C 86 % 1031,4 hPa 0,0 l/m 1,6 km/h (1 Bft) O-SO 112 0 min 0,000 mm 56 W/m -8,3 C -6,4 C 6,4 km/h (2 Bft) 100 %
25.01.2017 10:20 -6,3 C -6,4 C -6,3 C 86 % 1031,5 hPa 0,0 l/m 1,6 km/h (1 Bft) O-SO 112 0 min 0,000 mm 58 W/m -8,2 C -6,3 C 6,4 km/h (2 Bft) 100 %
25.01.2017 10:30 -6,3 C -6,4 C -6,3 C 85 % 1031,6 hPa 0,0 l/m 3,2 km/h (1 Bft) O-SO 112 0 min 0,000 mm 62 W/m -8,4 C -6,3 C 11,3 km/h (2 Bft) 100 %
25.01.2017 10:40 -6,3 C -6,4 C -6,3 C 85 % 1031,6 hPa 0,0 l/m 1,6 km/h (1 Bft) O 90 0 min 0,000 mm 63 W/m -8,4 C -6,3 C 8,0 km/h (2 Bft) 100 %
25.01.2017 10:50 -6,3 C -6,3 C -6,3 C 85 % 1031,7 hPa 0,0 l/m 0,0 km/h (0 Bft) SO 135 0 min 0,000 mm 70 W/m -8,4 C -6,3 C 8,0 km/h (2 Bft) 90 %
25.01.2017 11:00 -6,3 C -6,3 C -6,3 C 85 % 1031,7 hPa 0,0 l/m 1,6 km/h (1 Bft) SO 135 0 min 0,025 mm 72 W/m -8,4 C -6,3 C 9,7 km/h (2 Bft) 100 %
25.01.2017 11:10 -6,3 C -6,3 C -6,2 C 85 % 1031,7 hPa 0,0 l/m 1,6 km/h (1 Bft) O-SO 112 0 min 0,000 mm 81 W/m -8,4 C -6,3 C 8,0 km/h (2 Bft) 100 %
25.01.2017 11:20 -6,2 C -6,3 C -6,2 C 84 % 1031,7 hPa 0,0 l/m 1,6 km/h (1 Bft) O-SO 112 0 min 0,000 mm 93 W/m -8,4 C -6,2 C 9,7 km/h (2 Bft) 100 %
25.01.2017 11:30 -6,1 C -6,2 C -6,1 C 84 % 1031,7 hPa 0,0 l/m 1,6 km/h (1 Bft) O-SO 112 0 min 0,000 mm 95 W/m -8,4 C -6,1 C 14,5 km/h (3 Bft) 100 %
25.01.2017 11:40 -6,1 C -6,1 C -6,0 C 84 % 1031,6 hPa 0,0 l/m 1,6 km/h (1 Bft) O 90 0 min 0,000 mm 98 W/m -8,4 C -6,1 C 8,0 km/h (2 Bft) 100 %
25.01.2017 11:50 -5,9 C -6,1 C -5,9 C 84 % 1031,4 hPa 0,0 l/m 1,6 km/h (1 Bft) O 90 0 min 0,000 mm 98 W/m -8,2 C -5,9 C 9,7 km/h (2 Bft) 91 %
25.01.2017 12:00 -5,9 C -5,9 C -5,9 C 84 % 1031,3 hPa 0,0 l/m 3,2 km/h (1 Bft) SO 135 0 min 0,025 mm 98 W/m -8,2 C -5,9 C 9,7 km/h (2 Bft) 100 %
25.01.2017 12:10 -5,9 C -5,9 C -5,9 C 84 % 1031,1 hPa 0,0 l/m 1,6 km/h (1 Bft) O-SO 112 0 min 0,000 mm 102 W/m -8,2 C -5,9 C 14,5 km/h (3 Bft) 100 %
25.01.2017 12:20 -5,9 C -5,9 C -5,9 C 84 % 1031,1 hPa 0,0 l/m 1,6 km/h (1 Bft) O-SO 112 0 min 0,000 mm 107 W/m -8,2 C -5,9 C 9,7 km/h (2 Bft) 100 %
25.01.2017 12:30 -5,8 C -5,9 C -5,8 C 83 % 1031,1 hPa 0,0 l/m 1,6 km/h (1 Bft) O-SO 112 0 min 0,000 mm 98 W/m -8,2 C -5,8 C 9,7 km/h (2 Bft) 100 %
25.01.2017 12:40 -5,7 C -5,8 C -5,7 C 84 % 1031,0 hPa 0,0 l/m 0,0 km/h (0 Bft) N 0 0 min 0,000 mm 93 W/m -8,0 C -5,7 C 0,0 km/h (0 Bft) 100 %
25.01.2017 12:50 -5,7 C -5,7 C -5,6 C 83 % 1030,9 hPa 0,0 l/m 1,6 km/h (1 Bft) O 90 0 min 0,000 mm 90 W/m -8,1 C -5,7 C 8,0 km/h (2 Bft) 100 %
25.01.2017 13:00 -5,7 C -5,7 C -5,7 C 83 % 1030,8 hPa 0,0 l/m 3,2 km/h (1 Bft) O-SO 112 0 min 0,025 mm 93 W/m -8,1 C -5,7 C 9,7 km/h (2 Bft) 90 %
25.01.2017 13:10 -5,7 C -5,7 C -5,7 C 83 % 1030,7 hPa 0,0 l/m 1,6 km/h (1 Bft) O 90 0 min 0,000 mm 90 W/m -8,1 C -5,7 C 8,0 km/h (2 Bft) 100 %
25.01.2017 13:20 -5,7 C -5,8 C -5,7 C 83 % 1030,6 hPa 0,0 l/m 0,0 km/h (0 Bft) O-NO 67 0 min 0,000 mm 90 W/m -8,1 C -5,7 C 6,4 km/h (2 Bft) 100 %
25.01.2017 13:30 -5,7 C -5,7 C -5,7 C 83 % 1030,7 hPa 0,0 l/m 1,6 km/h (1 Bft) O-SO 112 0 min 0,000 mm 98 W/m -8,1 C -5,7 C 9,7 km/h (2 Bft) 100 %
25.01.2017 13:40 -5,7 C -5,8 C -5,7 C 83 % 1030,4 hPa 0,0 l/m 1,6 km/h (1 Bft) O-SO 112 0 min 0,000 mm 98 W/m -8,1 C -5,7 C 11,3 km/h (2 Bft) 100 %
25.01.2017 13:50 -5,7 C -5,8 C -5,7 C 83 % 1030,4 hPa 0,0 l/m 1,6 km/h (1 Bft) O-SO 112 0 min 0,000 mm 91 W/m -8,1 C -5,7 C 11,3 km/h (2 Bft) 100 %
25.01.2017 14:00 -5,7 C -5,7 C -5,7 C 82 % 1030,3 hPa 0,0 l/m 3,2 km/h (1 Bft) O-SO 112 0 min 0,025 mm 93 W/m -8,3 C -5,7 C 11,3 km/h (2 Bft) 100 %
25.01.2017 14:10 -5,6 C -5,7 C -5,6 C 82 % 1030,3 hPa 0,0 l/m 1,6 km/h (1 Bft) O 90 0 min 0,000 mm 93 W/m -8,2 C -5,6 C 4,8 km/h (1 Bft) 100 %
25.01.2017 14:20 -5,6 C -5,6 C -5,6 C 83 % 1030,1 hPa 0,0 l/m 1,6 km/h (1 Bft) SO 135 0 min 0,000 mm 84 W/m -8,0 C -5,6 C 14,5 km/h (3 Bft) 100 %
25.01.2017 14:30 -5,4 C -5,6 C -5,4 C 82 % 1030,1 hPa 0,0 l/m 0,0 km/h (0 Bft) O-SO 112 0 min 0,000 mm 86 W/m -8,0 C -5,4 C 6,4 km/h (2 Bft) 100 %
25.01.2017 14:40 -5,3 C -5,4 C -5,3 C 82 % 1030,1 hPa 0,0 l/m 1,6 km/h (1 Bft) O 90 0 min 0,000 mm 84 W/m -7,9 C -5,3 C 11,3 km/h (2 Bft) 100 %
25.01.2017 14:50 -5,2 C -5,3 C -5,2 C 82 % 1030,2 hPa 0,0 l/m 1,6 km/h (1 Bft) O-SO 112 0 min 0,000 mm 81 W/m -7,8 C -5,2 C 14,5 km/h (3 Bft) 100 %
25.01.2017 15:00 -5,2 C -5,2 C -5,2 C 82 % 1030,1 hPa 0,0 l/m 1,6 km/h (1 Bft) O-SO 112 0 min 0,025 mm 77 W/m -7,8 C -5,2 C 11,3 km/h (2 Bft) 90 %
25.01.2017 15:10 -5,1 C -5,2 C -5,1 C 82 % 1030,2 hPa 0,0 l/m 3,2 km/h (1 Bft) O-SO 112 0 min 0,000 mm 70 W/m -7,7 C -5,1 C 9,7 km/h (2 Bft) 98 %
25.01.2017 15:20 -5,1 C -5,1 C -5,1 C 82 % 1030,2 hPa 0,0 l/m 3,2 km/h (1 Bft) O-SO 112 0 min 0,000 mm 67 W/m -7,7 C -5,1 C 14,5 km/h (3 Bft) 100 %
25.01.2017 15:30 -5,0 C -5,1 C -5,0 C 82 % 1030,3 hPa 0,0 l/m 3,2 km/h (1 Bft) SO 135 0 min 0,000 mm 51 W/m -7,6 C -5,0 C 14,5 km/h (3 Bft) 100 %
25.01.2017 15:40 -4,9 C -5,0 C -4,9 C 82 % 1030,3 hPa 0,0 l/m 0,0 km/h (0 Bft) O 90 0 min 0,000 mm 42 W/m -7,5 C -4,9 C 6,4 km/h (2 Bft) 100 %
25.01.2017 15:50 -4,9 C -4,9 C -4,9 C 82 % 1030,2 hPa 0,0 l/m 1,6 km/h (1 Bft) O-SO 112 0 min 0,000 mm 37 W/m -7,5 C -4,9 C 9,7 km/h (2 Bft) 100 %
25.01.2017 16:00 -4,9 C -4,9 C -4,9 C 83 % 1030,2 hPa 0,0 l/m 1,6 km/h (1 Bft) O-SO 112 0 min 0,025 mm 32 W/m -7,3 C -4,9 C 9,7 km/h (2 Bft) 100 %
25.01.2017 16:10 -4,9 C -4,9 C -4,8 C 83 % 1030,3 hPa 0,0 l/m 0,0 km/h (0 Bft) O-SO 112 0 min 0,000 mm 26 W/m -7,3 C -4,9 C 6,4 km/h (2 Bft) 100 %
25.01.2017 16:20 -4,8 C -4,8 C -4,8 C 83 % 1030,2 hPa 0,0 l/m 0,0 km/h (0 Bft) N 0 0 min 0,000 mm 21 W/m -7,2 C -4,8 C 0,0 km/h (0 Bft) 100 %
25.01.2017 16:30 -4,8 C -4,8 C -4,8 C 83 % 1030,2 hPa 0,0 l/m 0,0 km/h (0 Bft) O-SO 112 0 min 0,000 mm 16 W/m -7,2 C -4,8 C 4,8 km/h (1 Bft) 100 %
25.01.2017 16:40 -4,7 C -4,8 C -4,7 C 83 % 1030,2 hPa 0,0 l/m 1,6 km/h (1 Bft) O-SO 111 0 min 0,002 mm 9 W/m -7,1 C -4,7 C 4,8 km/h (1 Bft) 98 %
25.01.2017 16:50 -4,7 C -4,8 C -4,7 C 83 % 1030,3 hPa 0,0 l/m 0,2 km/h (0 Bft) NO 51 0 min 0,000 mm 5 W/m -7,1 C -4,7 C 4,8 km/h (1 Bft) 97 %
25.01.2017 17:00 -4,7 C -4,7 C -4,7 C 83 % 1030,3 hPa 0,0 l/m 1,2 km/h (1 Bft) O-NO 67 0 min 0,000 mm 0 W/m -7,1 C -4,7 C 9,7 km/h (2 Bft) 97 %
25.01.2017 17:10 -4,7 C -4,7 C -4,7 C 84 % 1030,2 hPa 0,0 l/m 1,3 km/h (1 Bft) SO 136 0 min 0,000 mm 0 W/m -7,0 C -4,7 C 8,0 km/h (2 Bft) 90 %
25.01.2017 17:20 -4,7 C -4,7 C -4,7 C 84 % 1030,3 hPa 0,0 l/m 0,4 km/h (0 Bft) O-SO 123 0 min 0,000 mm 0 W/m -7,0 C -4,7 C 4,8 km/h (1 Bft) 98 %
25.01.2017 17:30 -4,7 C -4,7 C -4,7 C 84 % 1030,3 hPa 0,0 l/m 0,0 km/h (0 Bft) O-SO 121 0 min 0,000 mm 0 W/m -7,0 C -4,7 C 0,0 km/h (0 Bft) 97 %
25.01.2017 17:40 -4,7 C -4,7 C -4,7 C 84 % 1030,2 hPa 0,0 l/m 0,0 km/h (0 Bft) O-SO 121 0 min 0,000 mm 0 W/m -7,0 C -4,7 C 0,0 km/h (0 Bft) 98 %
25.01.2017 17:50 -4,7 C -4,7 C -4,7 C 84 % 1030,2 hPa 0,0 l/m 0,4 km/h (0 Bft) O-NO 68 0 min 0,000 mm 0 W/m -7,0 C -4,7 C 6,4 km/h (2 Bft) 99 %
25.01.2017 18:00 -4,6 C -4,7 C -4,6 C 84 % 1030,1 hPa 0,0 l/m 0,7 km/h (0 Bft) O-SO 109 0 min 0,000 mm 0 W/m -6,9 C -4,6 C 6,4 km/h (2 Bft) 98 %
25.01.2017 18:10 -4,6 C -4,6 C -4,6 C 84 % 1029,9 hPa 0,0 l/m 0,0 km/h (0 Bft) O-SO 106 0 min 0,000 mm 0 W/m -6,9 C -4,6 C 3,2 km/h (1 Bft) 91 %
25.01.2017 18:20 -4,5 C -4,6 C -4,5 C 84 % 1029,9 hPa 0,0 l/m 1,6 km/h (1 Bft) O-SO 107 0 min 0,000 mm 0 W/m -6,8 C -4,5 C 12,9 km/h (3 Bft) 99 %
25.01.2017 18:30 -4,5 C -4,6 C -4,5 C 84 % 1030,0 hPa 0,0 l/m 2,2 km/h (1 Bft) SO 128 0 min 0,000 mm 0 W/m -6,8 C -4,5 C 9,7 km/h (2 Bft) 99 %
25.01.2017 18:40 -4,4 C -4,5 C -4,4 C 84 % 1030,1 hPa 0,0 l/m 1,0 km/h (0 Bft) O-SO 113 0 min 0,000 mm 0 W/m -6,7 C -4,4 C 6,4 km/h (2 Bft) 100 %
25.01.2017 18:50 -4,4 C -4,4 C -4,4 C 85 % 1030,2 hPa 0,0 l/m 0,1 km/h (0 Bft) O 90 0 min 0,000 mm 0 W/m -6,5 C -4,4 C 3,2 km/h (1 Bft) 100 %
25.01.2017 19:00 -4,4 C -4,4 C -4,4 C 85 % 1030,2 hPa 0,0 l/m 0,1 km/h (0 Bft) O-SO 121 0 min 0,000 mm 0 W/m -6,5 C -4,4 C 4,8 km/h (1 Bft) 100 %
25.01.2017 19:10 -4,3 C -4,4 C -4,3 C 85 % 1030,1 hPa 0,0 l/m 0,5 km/h (0 Bft) O 94 0 min 0,000 mm 0 W/m -6,4 C -4,3 C 6,4 km/h (2 Bft) 99 %
25.01.2017 19:20 -4,2 C -4,3 C -4,2 C 85 % 1030,1 hPa 0,0 l/m 2,0 km/h (1 Bft) O-SO 103 0 min 0,000 mm 0 W/m -6,3 C -4,2 C 11,3 km/h (2 Bft) 100 %
25.01.2017 19:30 -4,1 C -4,2 C -4,1 C 84 % 1030,1 hPa 0,0 l/m 1,0 km/h (0 Bft) O-NO 78 0 min 0,000 mm 0 W/m -6,4 C -4,1 C 6,4 km/h (2 Bft) 100 %
25.01.2017 19:40 -4,1 C -4,1 C -4,1 C 85 % 1030,1 hPa 0,0 l/m 0,7 km/h (0 Bft) O-NO 58 0 min 0,000 mm 0 W/m -6,2 C -4,1 C 8,0 km/h (2 Bft) 92 %
25.01.2017 19:50 -4,0 C -4,1 C -4,0 C 84 % 1030,0 hPa 0,0 l/m 3,5 km/h (1 Bft) O-SO 113 0 min 0,000 mm 0 W/m -6,3 C -4,0 C 9,7 km/h (2 Bft) 98 %
25.01.2017 20:00 -3,9 C -4,0 C -3,9 C 84 % 1030,0 hPa 0,0 l/m 0,8 km/h (0 Bft) O 88 0 min 0,000 mm 0 W/m -6,2 C -3,9 C 6,4 km/h (2 Bft) 100 %
25.01.2017 20:10 -3,9 C -3,9 C -3,9 C 84 % 1030,0 hPa 0,0 l/m 0,4 km/h (0 Bft) SO 125 0 min 0,000 mm 0 W/m -6,2 C -3,9 C 6,4 km/h (2 Bft) 100 %
25.01.2017 20:20 -3,9 C -3,9 C -3,9 C 85 % 1030,0 hPa 0,0 l/m 0,1 km/h (0 Bft) O-SO 122 0 min 0,000 mm 0 W/m -6,0 C -3,9 C 3,2 km/h (1 Bft) 91 %
25.01.2017 20:30 -3,9 C -3,9 C -3,9 C 84 % 1030,0 hPa 0,0 l/m 0,0 km/h (0 Bft) O-SO 122 0 min 0,000 mm 0 W/m -6,2 C -3,9 C 0,0 km/h (0 Bft) 100 %
25.01.2017 20:40 -3,9 C -3,9 C -3,9 C 84 % 1029,9 hPa 0,0 l/m 1,7 km/h (1 Bft) O-SO 121 0 min 0,000 mm 0 W/m -6,2 C -3,9 C 8,0 km/h (2 Bft) 100 %
25.01.2017 20:50 -3,8 C -3,9 C -3,8 C 84 % 1030,0 hPa 0,0 l/m 1,0 km/h (0 Bft) O-SO 123 0 min 0,000 mm 0 W/m -6,1 C -3,8 C 4,8 km/h (1 Bft) 91 %
25.01.2017 21:00 -3,8 C -3,8 C -3,8 C 84 % 1029,9 hPa 0,0 l/m 0,4 km/h (0 Bft) O-SO 111 0 min 0,000 mm 0 W/m -6,1 C -3,8 C 8,0 km/h (2 Bft) 99 %
25.01.2017 21:10 -3,9 C -3,9 C -3,8 C 85 % 1030,0 hPa 0,0 l/m 0,0 km/h (0 Bft) S-SO 157 0 min 0,000 mm 0 W/m -6,0 C -3,9 C 6,4 km/h (2 Bft) 100 %
25.01.2017 21:20 -3,9 C -3,9 C -3,9 C 85 % 1030,1 hPa 0,0 l/m 0,0 km/h (0 Bft) S-SO 157 0 min 0,000 mm 0 W/m -6,0 C -3,9 C 3,2 km/h (1 Bft) 100 %
25.01.2017 21:30 -3,9 C -3,9 C -3,9 C 85 % 1029,9 hPa 0,0 l/m 1,6 km/h (1 Bft) SO 135 0 min 0,000 mm 0 W/m -6,0 C -3,9 C 6,4 km/h (2 Bft) 96 %
25.01.2017 21:40 -3,9 C -3,9 C -3,9 C 85 % 1030,0 hPa 0,0 l/m 0,0 km/h (0 Bft) SO 135 0 min 0,000 mm 0 W/m -6,0 C -3,9 C 6,4 km/h (2 Bft) 95 %
25.01.2017 21:50 -3,9 C -3,9 C -3,9 C 85 % 1030,0 hPa 0,0 l/m 1,6 km/h (1 Bft) SO 135 0 min 0,000 mm 0 W/m -6,0 C -3,9 C 11,3 km/h (2 Bft) 100 %
25.01.2017 22:00 -3,9 C -3,9 C -3,9 C 85 % 1029,8 hPa 0,0 l/m 3,2 km/h (1 Bft) SO 135 0 min 0,000 mm 0 W/m -6,0 C -3,9 C 11,3 km/h (2 Bft) 100 %
25.01.2017 22:10 -4,0 C -4,0 C -3,9 C 84 % 1029,9 hPa 0,0 l/m 3,2 km/h (1 Bft) SO 135 0 min 0,000 mm 0 W/m -6,3 C -4,0 C 9,7 km/h (2 Bft) 100 %
25.01.2017 22:20 -4,0 C -4,0 C -4,0 C 84 % 1029,8 hPa 0,0 l/m 1,6 km/h (1 Bft) O-SO 112 0 min 0,000 mm 0 W/m -6,3 C -4,0 C 16,1 km/h (3 Bft) 100 %
25.01.2017 22:30 -4,0 C -4,0 C -4,0 C 84 % 1029,9 hPa 0,0 l/m 0,0 km/h (0 Bft) SO 135 0 min 0,000 mm 0 W/m -6,3 C -4,0 C 6,4 km/h (2 Bft) 100 %
25.01.2017 22:40 -4,0 C -4,0 C -4,0 C 84 % 1029,9 hPa 0,0 l/m 0,0 km/h (0 Bft) N 0 0 min 0,000 mm 0 W/m -6,3 C -4,0 C 0,0 km/h (0 Bft) 91 %
25.01.2017 22:50 -4,0 C -4,0 C -4,0 C 84 % 1030,0 hPa 0,0 l/m 0,0 km/h (0 Bft) SO 135 0 min 0,000 mm 0 W/m -6,3 C -4,0 C 6,4 km/h (2 Bft) 100 %
25.01.2017 23:00 -3,9 C -4,0 C -3,9 C 83 % 1029,8 hPa 0,0 l/m 3,2 km/h (1 Bft) O-SO 112 0 min 0,000 mm 0 W/m -6,4 C -3,9 C 16,1 km/h (3 Bft) 100 %
25.01.2017 23:10 -3,9 C -3,9 C -3,9 C 83 % 1029,7 hPa 0,0 l/m 1,6 km/h (1 Bft) O-SO 112 0 min 0,000 mm 0 W/m -6,4 C -3,9 C 11,3 km/h (2 Bft) 100 %
25.01.2017 23:20 -3,9 C -3,9 C -3,9 C 83 % 1029,9 hPa 0,0 l/m 0,0 km/h (0 Bft) O-SO 112 0 min 0,000 mm 0 W/m -6,4 C -3,9 C 6,4 km/h (2 Bft) 100 %
25.01.2017 23:30 -3,8 C -3,9 C -3,8 C 83 % 1029,9 hPa 0,0 l/m 1,6 km/h (1 Bft) O 90 0 min 0,000 mm 0 W/m -6,3 C -3,8 C 11,3 km/h (2 Bft) 100 %
25.01.2017 23:40 -3,8 C -3,8 C -3,8 C 82 % 1029,9 hPa 0,0 l/m 3,2 km/h (1 Bft) O-SO 112 0 min 0,000 mm 0 W/m -6,4 C -3,8 C 17,7 km/h (3 Bft) 99 %
25.01.2017 23:50 -3,7 C -3,8 C -3,7 C 82 % 1029,9 hPa 0,0 l/m 1,6 km/h (1 Bft) O-SO 112 0 min 0,000 mm 0 W/m -6,3 C -3,7 C 11,3 km/h (2 Bft) 100 %
_ Min-Zeit 00:50 00:50 00:20 14:00 23:10 - 00:00 - - - - - 01:00 01:00 01:20 17:10
Minimum _ -8,8 C -8,8 C -8,7 C 82 % 1029,7 hPa - 0,0 km/h (0 Bft) - - - - - -10,1 C -8,8 C 0,0 km/h (0 Bft) 90 %
_ Max-Zeit 23:50 21:00 23:50 02:40 10:50 00:00 19:50 - - 00:00 11:00 12:20 20:20 23:50 04:50 04:10
Maximum _ -3,7 C -3,8 C -3,7 C 91 % 1031,7 hPa 0,0 l/m 3,5 km/h
O-SO (1 Bft)
- - 0 min 0,025 mm 107 W/m -6,0 C -3,7 C 17,7 km/h
O-NO (3 Bft)
100 %
Durchschnitt _ -5,9 C -6,0 C -5,9 C 86 % 1030,6 hPa #0,0 l/m 1,1 km/h (0 Bft) O-SO - #0 min. #0,152 mm 63 W/m -7,9 C -5,9 C 7,6 km/h (2 Bft) 98 %
PRIVATE WETTERSTATION BILLIGHEIM-ALLFELD - www.neckar-odenwald-wetter.de - Holger Sonntag